| time (UTC) | temp F | wind direction | speed knots | gust knots | rain 1hr in | rain 24hr in | rain mn in | humidity % | barometer mb |
| 20260505101329 | 55 | 188 | 0.0 | 0.9 | 0.00 | 0.14 | 0.00 | 81 | 1023.8 |
| 20260505100140 | 56 | 68 | 1.7 | 2.6 | 0.00 | 0.14 | 0.00 | 80 | 1023.5 |
| 20260505095133 | 56 | 181 | 0.9 | 2.6 | 0.00 | 0.14 | 0.00 | 80 | 1023.5 |
| 20260505093759 | 56 | 124 | 0.9 | 1.7 | 0.00 | 0.14 | 0.00 | 81 | 1023.4 |
| 20260505092709 | 56 | 166 | 1.7 | 2.6 | 0.00 | 0.14 | 0.00 | 81 | 1023.2 |
| 20260505091419 | 56 | 166 | 0.9 | 1.7 | 0.00 | 0.14 | 0.00 | 81 | 1023.1 |
| 20260505090125 | 57 | 131 | 0.9 | 1.7 | 0.00 | 0.14 | 0.00 | 79 | 1023.0 |
| 20260505085119 | 58 | 158 | 0.9 | 1.7 | 0.00 | 0.14 | 0.00 | 77 | 1022.8 |
| 20260505083745 | 58 | 115 | 0.9 | 0.9 | 0.00 | 0.14 | 0.00 | 76 | 1022.8 |
| 20260505082556 | 61 | 0.0 | 0.0 | 0.00 | 0.14 | 0.00 | 72 | 1022.5 | |
| 20260505081446 | 60 | 0.0 | 1.7 | 0.00 | 0.14 | 0.00 | 72 | 1022.2 | |
| 20260505080112 | 60 | 162 | 0.9 | 1.7 | 0.00 | 0.14 | 0.00 | 73 | 1022.0 |
| 20260505075025 | 61 | 141 | 0.9 | 1.7 | 0.00 | 0.14 | 0.00 | 73 | 1021.9 |
| 20260505073935 | 62 | 116 | 1.7 | 1.7 | 0.00 | 0.14 | 0.00 | 71 | 1021.7 |
| 20260505072541 | 64 | 156 | 0.9 | 1.7 | 0.00 | 0.14 | 0.00 | 66 | 1021.5 |
| 20260505071351 | 65 | 167 | 0.9 | 0.9 | 0.00 | 0.14 | 0.00 | 64 | 1021.3 |
| 20260505070200 | 68 | 158 | 2.6 | 3.5 | 0.00 | 0.14 | 0.00 | 58 | 1021.1 |
| 20260505065011 | 69 | 135 | 2.6 | 5.2 | 0.00 | 0.14 | 0.00 | 55 | 1021.0 |
| 20260505063821 | 71 | 108 | 1.7 | 5.2 | 0.00 | 0.14 | 0.00 | 51 | 1020.7 |
| 20260505062711 | 73 | 183 | 2.6 | 6.1 | 0.00 | 0.14 | 0.00 | 42 | 1020.6 |
| 20260505061417 | 73 | 220 | 1.7 | 3.5 | 0.00 | 0.14 | 0.00 | 40 | 1020.3 |
| 20260505060147 | 73 | 202 | 0.9 | 2.6 | 0.00 | 0.14 | 0.00 | 41 | 1020.2 |
| 20260505055101 | 74 | 195 | 1.7 | 2.6 | 0.00 | 0.14 | 0.00 | 40 | 1020.1 |
| 20260505053806 | 74 | 214 | 5.2 | 7.0 | 0.00 | 0.14 | 0.00 | 40 | 1020.0 |
| 20260505052616 | 73 | 201 | 2.6 | 3.5 | 0.00 | 0.14 | 0.00 | 40 | 1019.8 |
| 20260505051323 | 74 | 159 | 3.5 | 7.0 | 0.00 | 0.14 | 0.00 | 40 | 1019.7 |
| 20260505050237 | 73 | 206 | 0.9 | 5.2 | 0.00 | 0.14 | 0.00 | 40 | 1019.6 |
| 20260505041414 | 73 | 160 | 2.6 | 5.2 | 0.00 | 0.14 | 0.00 | 40 | 1019.5 |
| 20260505040223 | 74 | 146 | 2.6 | 5.2 | 0.00 | 0.14 | 0.00 | 39 | 1019.4 |
| 20260505035032 | 74 | 232 | 4.3 | 9.6 | 0.00 | 0.14 | 0.00 | 39 | 1019.2 |
| 20260505033841 | 73 | 200 | 1.7 | 7.0 | 0.00 | 0.14 | 0.00 | 39 | 1019.3 |
| 20260505032546 | 73 | 177 | 1.7 | 6.1 | 0.00 | 0.14 | 0.00 | 40 | 1019.4 |
| 20260505031437 | 72 | 231 | 4.3 | 7.0 | 0.00 | 0.14 | 0.00 | 40 | 1019.5 |
| 20260505030207 | 73 | 224 | 3.5 | 5.2 | 0.00 | 0.14 | 0.00 | 40 | 1019.6 |
| 20260505025018 | 72 | 193 | 3.5 | 5.2 | 0.00 | 0.14 | 0.00 | 42 | 1019.7 |
| 20260505023825 | 73 | 162 | 3.5 | 9.6 | 0.00 | 0.14 | 0.00 | 42 | 1019.7 |
| 20260505022636 | 72 | 180 | 4.3 | 7.8 | 0.00 | 0.14 | 0.00 | 43 | 1019.7 |
| 20260505021339 | 72 | 152 | 4.3 | 8.7 | 0.00 | 0.14 | 0.00 | 42 | 1019.9 |
| 20260505020149 | 71 | 185 | 2.6 | 7.8 | 0.00 | 0.14 | 0.00 | 44 | 1020.1 |
| 20260505015102 | 72 | 223 | 6.1 | 8.7 | 0.00 | 0.14 | 0.00 | 43 | 1020.2 |
| 20260505013848 | 71 | 209 | 6.1 | 12.2 | 0.00 | 0.14 | 0.00 | 44 | 1020.3 |
| 20260505012618 | 71 | 221 | 3.5 | 11.3 | 0.00 | 0.14 | 0.00 | 45 | 1020.3 |
| 20260505011429 | 71 | 333 | 1.7 | 3.5 | 0.00 | 0.14 | 0.00 | 47 | 1020.6 |
| 20260505010135 | 70 | 287 | 2.6 | 3.5 | 0.00 | 0.14 | 0.00 | 48 | 1020.4 |
| 20260505004945 | 70 | 291 | 1.7 | 1.7 | 0.00 | 0.14 | 0.00 | 46 | 1020.7 |
| 20260505003856 | 70 | 156 | 1.7 | 3.5 | 0.00 | 0.15 | 0.00 | 49 | 1020.8 |
| 20260505002646 | 68 | 257 | 0.9 | 1.7 | 0.00 | 0.15 | 0.00 | 51 | 1020.6 |
| 20260505001416 | 69 | 210 | 0.9 | 3.5 | 0.00 | 0.16 | 0.00 | 50 | 1020.6 |
| 20260505000123 | 68 | 336 | 2.6 | 5.2 | 0.00 | 0.16 | 0.00 | 53 | 1020.5 |
| 20260504234932 | 67 | 313 | 1.7 | 3.5 | 0.00 | 0.17 | 0.00 | 53 | 1020.8 |
| 20260504233845 | 66 | 218 | 2.6 | 7.0 | 0.00 | 0.17 | 0.00 | 54 | 1020.8 |
| 20260504232551 | 66 | 206 | 3.5 | 9.6 | 0.00 | 0.17 | 0.00 | 55 | 1021.0 |
| 20260504231359 | 65 | 225 | 4.3 | 9.6 | 0.00 | 0.17 | 0.00 | 55 | 1020.9 |
| 20260504230249 | 65 | 237 | 7.8 | 13.0 | 0.00 | 0.18 | 0.00 | 54 | 1020.8 |
| 20260504224915 | 65 | 284 | 3.5 | 6.1 | 0.00 | 0.18 | 0.00 | 55 | 1020.8 |
| 20260504223828 | 65 | 228 | 3.5 | 7.0 | 0.00 | 0.19 | 0.00 | 57 | 1020.7 |
| 20260504222719 | 64 | 215 | 2.6 | 7.0 | 0.00 | 0.21 | 0.00 | 60 | 1020.6 |
| 20260504221346 | 63 | 283 | 2.6 | 7.0 | 0.00 | 0.22 | 0.00 | 60 | 1020.4 |
| 20260504220156 | 62 | 189 | 3.5 | 7.8 | 0.00 | 0.22 | 0.00 | 61 | 1020.4 |
| 20260504215005 | 63 | 269 | 2.6 | 7.8 | 0.00 | 0.22 | 0.00 | 59 | 1020.0 |
| 20260504213815 | 64 | 98 | 5.2 | 12.2 | 0.00 | 0.22 | 0.00 | 55 | 1019.7 |
| 20260504212623 | 62 | 200 | 2.6 | 7.0 | 0.00 | 0.22 | 0.00 | 62 | 1019.3 |
| 20260504211330 | 61 | 269 | 4.3 | 13.0 | 0.00 | 0.22 | 0.00 | 63 | 1018.5 |
| 20260504210140 | 60 | 284 | 7.8 | 15.6 | 0.00 | 0.22 | 0.00 | 64 | 1018.5 |
| 20260504204950 | 60 | 272 | 4.3 | 7.0 | 0.00 | 0.22 | 0.00 | 66 | 1019.0 |
| 20260504203800 | 59 | 254 | 2.6 | 7.0 | 0.00 | 0.22 | 0.00 | 68 | 1019.0 |
| 20260504202610 | 57 | 270 | 1.7 | 2.6 | 0.00 | 0.22 | 0.00 | 71 | 1019.0 |
| 20260504201420 | 55 | 335 | 1.7 | 2.6 | 0.00 | 0.22 | 0.00 | 75 | 1019.1 |
| 20260504200126 | 51 | 117 | 1.7 | 2.6 | 0.00 | 0.22 | 0.00 | 87 | 1019.0 |
| 20260504194936 | 52 | 178 | 0.9 | 1.7 | 0.00 | 0.22 | 0.00 | 86 | 1019.0 |
| 20260504193849 | 52 | 166 | 0.9 | 0.9 | 0.00 | 0.22 | 0.00 | 85 | 1019.0 |
| 20260504192555 | 53 | 104 | 0.9 | 2.6 | 0.00 | 0.22 | 0.00 | 83 | 1018.7 |
| 20260504191405 | 54 | 335 | 0.9 | 3.5 | 0.00 | 0.22 | 0.00 | 79 | 1018.9 |
| 20260504190215 | 54 | 180 | 0.0 | 1.7 | 0.00 | 0.22 | 0.00 | 80 | 1018.9 |
| 20260504185001 | 53 | 175 | 0.0 | 0.9 | 0.00 | 0.22 | 0.00 | 85 | 1018.9 |
| 20260504183834 | 54 | 179 | 0.9 | 1.7 | 0.00 | 0.22 | 0.00 | 82 | 1019.0 |
| 20260504182644 | 55 | 162 | 0.9 | 1.7 | 0.00 | 0.22 | 0.00 | 78 | 1018.9 |
| 20260504181349 | 56 | 118 | 1.7 | 3.5 | 0.00 | 0.22 | 0.00 | 76 | 1019.0 |
| 20260504180159 | 59 | 133 | 0.9 | 0.9 | 0.00 | 0.22 | 0.00 | 71 | 1018.7 |
| 20260504175009 | 60 | 236 | 1.7 | 2.6 | 0.00 | 0.22 | 0.00 | 67 | 1018.5 |
| 20260504173819 | 60 | 202 | 4.3 | 7.0 | 0.00 | 0.22 | 0.00 | 67 | 1018.5 |
| 20260504172629 | 60 | 229 | 0.9 | 2.6 | 0.00 | 0.22 | 0.00 | 68 | 1018.8 |
| 20260504171336 | 61 | 225 | 3.5 | 6.1 | 0.00 | 0.22 | 0.00 | 65 | 1018.9 |
| 20260504170226 | 62 | 261 | 6.1 | 12.2 | 0.00 | 0.22 | 0.00 | 63 | 1018.7 |
| 20260504160213 | 61 | 257 | 1.7 | 3.5 | 0.00 | 0.22 | 0.00 | 70 | 1018.9 |
| 20260504150224 | 62 | 249 | 4.3 | 7.8 | 0.00 | 0.22 | 0.00 | 68 | 1018.7 |
| 20260504140209 | 62 | 357 | 1.7 | 2.6 | 0.00 | 0.22 | 0.00 | 77 | 1018.6 |
| 20260504130154 | 59 | 204 | 0.9 | 1.7 | 0.01 | 0.22 | 0.22 | 94 | 1018.7 |
| 20260504120142 | 62 | 54 | 0.9 | 1.7 | 0.01 | 0.21 | 0.21 | 94 | 1019.0 |
| 20260504110228 | 63 | 230 | 0.9 | 0.9 | 0.12 | 0.20 | 0.20 | 91 | 1018.9 |